Weather History for KBFI - January, 2012

Change the Weather History Date:

Sunday, January 15, 2012

  Actual Average Record
Temperature  
Mean Temperature 30 °F -  
Max Temperature 36 °F 47 °F 58 °F (1974)
Min Temperature 24 °F 37 °F 15 °F (1950)
Degree Days  
Heating Degree Days 35    
Moisture  
Dew Point 30 °F    
Average Humidity 92    
Maximum Humidity 100    
Minimum Humidity 78    
Precipitation  
Precipitation 0.23 in - - ()
Sea Level Pressure  
Sea Level Pressure 30.02 in    
Wind  
Wind Speed 4 mph (SE)    
Max Wind Speed 9 mph    
Max Gust Speed -    
Visibility 5 miles    
Events Fog , Snow    
Averages and records for this station are not official NWS values.
T = Trace of Precipitation, MM = Missing Value Source: NWS Daily Summary

Daily Weather History Graph

Daily Weather History Graph

Search for Another Location

Airport or City:

Trip Planner

Search our weather history database for the weather conditions in past years. The results will help you decide how hot, cold, wet, or windy it might be!

Date:

Astronomy

Jan. 15, 2012 Rise Set
Actual Time 7:52 AM PST 4:44 PM PST
Civil Twilight 7:17 AM PST 5:19 PM PST
Nautical Twilight 6:39 AM PST 5:57 PM PST
Astronomical Twilight 6:02 AM PST 6:34 PM PST
Moon No Moon Rise 10:38 AM PST (1/15)
Length of Visible Light 10h 01m
Length of Day
8h 52m
Waning Gibbous, 56% of the Moon is Illuminated
Jan 15
Waning Gibbous
Jan 16
Last Quarter
Jan 22
New
Jan 30
First Quarter
Feb 7
Full

Hourly Weather History & Observations

Time (PST) Temp. Windchill Dew Point Humidity Pressure Visibility Wind Dir Wind Speed Gust Speed Precip Events Conditions
12:53 AM 35.1 °F 30.1 °F 28.9 °F 78% 30.01 in 10.0 mi SSE 5.8 mph - N/A   Overcast
1:53 AM 34.0 °F 28.8 °F 28.9 °F 82% 30.01 in 10.0 mi South 5.8 mph - N/A   Overcast
2:53 AM 34.0 °F 27.2 °F 30.0 °F 85% 30.01 in 10.0 mi SSE 8.1 mph - N/A   Overcast
3:53 AM 34.0 °F 28.0 °F 28.9 °F 82% 30.01 in 10.0 mi SSE 6.9 mph - N/A   Overcast
4:39 AM 33.8 °F 29.6 °F 30.2 °F 87% 30.01 in 10.0 mi SE 4.6 mph - N/A   Overcast
4:53 AM 33.1 °F 28.7 °F 28.9 °F 85% 30.01 in 10.0 mi SSE 4.6 mph - N/A   Overcast
5:01 AM 33.8 °F 27.7 °F 28.4 °F 81% 30.01 in 10.0 mi SE 6.9 mph - N/A   Overcast
5:53 AM 33.1 °F 26.1 °F 28.9 °F 85% 30.00 in 10.0 mi SSE 8.1 mph - N/A   Overcast
6:53 AM 33.1 °F 26.9 °F 30.0 °F 89% 30.00 in 10.0 mi SE 6.9 mph - 0.00 in   Overcast
7:53 AM 33.1 °F 26.9 °F 28.9 °F 85% 29.99 in 7.0 mi SE 6.9 mph - 0.00 in   Overcast
8:32 AM 33.8 °F 27.7 °F 30.2 °F 87% 30.00 in 5.0 mi SE 6.9 mph - 0.00 in Snow Light Snow
8:53 AM 33.1 °F 30.0 °F 30.9 °F 92% 30.00 in 4.0 mi SSE 3.5 mph - 0.03 in Snow Light Snow
9:53 AM 33.1 °F 25.5 °F 30.9 °F 92% 30.01 in 3.0 mi SE 9.2 mph - 0.00 in Snow Light Snow
9:56 AM 33.8 °F 27.0 °F 30.2 °F 87% 30.01 in 1.8 mi SE 8.1 mph - 0.00 in Snow Light Snow
10:53 AM 33.1 °F - 32.0 °F 96% 30.01 in 1.8 mi Calm Calm - 0.02 in Snow Light Snow
11:00 AM 33.8 °F 28.6 °F 32.0 °F 93% 30.01 in 3.0 mi SE 5.8 mph - 0.00 in Snow Light Snow
11:53 AM 36.0 °F 30.3 °F 33.1 °F 89% 30.00 in 4.0 mi ESE 6.9 mph - 0.00 in   Overcast
12:53 PM 33.1 °F - 32.0 °F 96% 29.99 in 3.0 mi Calm Calm - 0.02 in Snow Light Snow
1:00 PM 33.8 °F - 32.0 °F 93% 29.99 in 1.2 mi Calm Calm - 0.01 in Snow Light Snow
1:08 PM 32.0 °F - 32.0 °F 100% 29.99 in 0.8 mi Calm Calm - 0.02 in Snow Light Snow
1:53 PM 32.0 °F 28.7 °F 32.0 °F 100% 29.99 in 0.2 mi NNW 3.5 mph - 0.12 in Fog , Snow Snow
2:00 PM 32.0 °F - 32.0 °F 100% 29.99 in 0.5 mi Calm Calm - 0.00 in Fog , Snow Light Snow
2:02 PM 32.0 °F - 32.0 °F 100% 29.99 in 1.0 mi Calm Calm - 0.00 in Snow Light Snow
2:05 PM 32.0 °F - 32.0 °F 100% 29.99 in 1.0 mi Calm Calm - 0.00 in Snow Light Snow
2:21 PM 32.0 °F - 32.0 °F 100% 30.00 in 0.5 mi Calm Calm - 0.01 in Fog , Snow Snow
2:34 PM 32.0 °F - 30.2 °F 93% 30.00 in 0.5 mi Calm Calm - 0.03 in Fog , Snow Snow
2:53 PM 32.0 °F 28.7 °F 30.9 °F 96% 30.00 in 0.8 mi ENE 3.5 mph - 0.04 in Snow Light Snow
2:59 PM 32.0 °F - 30.2 °F 93% 30.00 in 1.0 mi Calm Calm - 0.00 in Snow Light Snow
3:17 PM 33.8 °F - 30.2 °F 87% 30.00 in 4.0 mi Calm Calm - 0.00 in   Overcast
3:53 PM 33.1 °F - 30.9 °F 92% 30.01 in 10.0 mi Calm Calm - 0.00 in   Mostly Cloudy
4:29 PM 33.8 °F - 32.0 °F 93% 30.02 in 10.0 mi Calm Calm - N/A   Overcast
4:53 PM 33.1 °F - 32.0 °F 96% 30.02 in 8.0 mi Calm Calm - 0.00 in Snow Light Snow
5:53 PM 32.0 °F - 30.9 °F 96% 30.03 in 10.0 mi Calm Calm - N/A   Overcast
6:00 PM 32.0 °F - 30.2 °F 93% 30.03 in 10.0 mi Calm Calm - N/A   Overcast
6:53 PM 32.0 °F - 30.0 °F 92% 30.04 in 10.0 mi Calm Calm - N/A   Partly Cloudy
7:53 PM 30.9 °F - 28.9 °F 92% 30.05 in 10.0 mi Calm Calm - N/A   Scattered Clouds
8:53 PM 28.0 °F - 26.1 °F 92% 30.07 in 9.0 mi Calm Calm - N/A   Partly Cloudy
9:43 PM 24.8 °F 20.5 °F 24.8 °F 100% 30.08 in 1.0 mi SE 3.5 mph - N/A   Mist
9:53 PM 26.1 °F 19.4 °F 24.1 °F 92% 30.09 in 0.5 mi SE 5.8 mph - N/A Fog Light Freezing Fog
10:15 PM 26.6 °F 19.1 °F 26.6 °F 100% 30.09 in 0.5 mi SE 6.9 mph - N/A Fog Light Freezing Fog
10:53 PM 26.1 °F 21.9 °F 26.1 °F 100% 30.11 in 0.5 mi SSE 3.5 mph - N/A Fog Light Freezing Fog
11:04 PM 28.4 °F 23.3 °F 26.6 °F 93% 30.11 in 4.0 mi ESE 4.6 mph - N/A   Overcast
11:53 PM 28.0 °F 22.8 °F 27.0 °F 96% 30.12 in 6.0 mi SE 4.6 mph - N/A   Mostly Cloudy